Zurück zum Katalog

QIANFAN-223

AktivKommunikationPO
NORAD 69852·PAYLOAD·🇨🇳 China

Gestartet Jul 5, 2026 von Wenchang Space Launch Site

Loading…

Nächste Überflüge (nächste 24 Stunden)

TLE

AktuellSource: Space-Track

Epoche: Sep 14, 2026, 21:15 UTC

1 69852U 26155E   26257.88555524 -.01827670  00000-0 -32013+1 0  9995
2 69852  89.0078  54.3145 0039891  25.7701 334.5424 13.47195324  9955

Verfolge QIANFAN-223 in Echtzeit mit AllMySat

Download on the App Store